Wind_Speed
11 11 10 10 9 8 8 7 7 7 7 6 6 6 6 6 6 5 5 6 6 6 6 6 7 7 7 7 7 6 6 6 6 6 6 6 6 6 7 7 7 7 7
13 12 12 12 11 10 10 9 9 9 9 8 8 8 7 7 7 7 7 7 8 8 8 8 8 8 8 8 8 8 7 8 8 7 7 8 8 8 8 8 8 9 9
14 14 14 13 13 12 11 11 11 11 11 10 10 9 9 9 9 9 9 9 9 10 10 9 9 9 9 10 10 10 9 9 10 10 10 10 10 10 10 10 11 11 11
16 15 15 14 14 13 13 12 12 12 12 12 11 11 10 10 10 10 10 11 11 11 11 11 10 10 10 10 11 11 11 11 11 11 11 12 12 12 12 12 13 13 13
17 17 16 16 15 15 14 14 13 13 13 13 13 13 12 12 12 12 12 12 12 12 12 12 12 12 12 11 11 12 12 12 13 13 13 13 14 14 14 14 14 15 15
19 18 17 17 16 16 16 15 15 15 15 14 14 14 14 14 14 14 14 14 14 14 14 14 14 14 14 14 13 13 14 14 15 15 15 15 15 15 16 16 16 17 17
20 19 19 18 18 17 17 17 17 16 16 16 16 16 16 16 16 16 16 16 16 16 16 16 16 16 16 16 16 16 16 16 16 17 17 17 17 17 18 18 18 19 19
21 21 20 19 19 19 18 18 18 18 18 18 18 18 18 18 18 18 18 17 17 17 17 17 17 17 17 18 18 18 18 18 18 19 19 19 19 20 20 20 20 21 21
22 22 21 21 20 20 20 20 20 20 19 19 19 19 20 20 19 19 18 19 19 18 18 18 18 18 19 19 19 19 20 20 20 20 20 21 21 21 22 22 22 23 23
24 23 23 22 22 22 22 22 21 21 20 20 21 21 20 20 20 20 20 20 20 20 20 20 20 20 20 20 21 21 21 22 22 22 22 23 23 23 23 24 24 25 25
25 24 24 24 24 24 23 23 23 22 22 22 22 22 21 21 21 21 21 21 21 21 20 21 21 21 21 22 22 22 23 23 23 24 24 24 25 25 25 26 27 27 27
26 26 26 25 25 25 25 25 24 24 23 23 23 22 22 22 22 22 22 22 22 22 22 22 22 23 23 23 23 24 24 24 25 25 25 26 26 26 27 28 28 29 29
27 27 26 26 26 26 26 25 25 25 24 24 24 24 23 23 23 23 23 23 23 23 23 23 23 24 24 24 24 24 25 25 26 27 27 28 28 29 29 29 30 30 31
27 27 27 27 27 27 26 26 26 25 25 25 24 24 24 24 24 24 24 25 25 25 25 24 24 24 25 25 25 26 26 27 28 28 29 29 30 30 31 31 32 33 33
27 27 28 27 27 27 27 26 26 26 25 25 25 25 25 25 25 25 25 26 26 26 25 25 26 26 26 27 27 27 28 28 29 29 30 30 31 31 32 33 34 35 36
28 28 28 28 28 28 27 27 26 26 26 27 26 26 25 25 25 26 26 26 26 27 27 27 27 27 28 28 29 29 29 30 30 31 32 32 33 33 34 35 36 36 36
28 28 27 28 28 28 28 27 27 27 27 27 27 27 27 26 26 27 27 27 27 27 28 28 29 29 30 30 31 31 31 31 32 32 33 34 34 35 36 37 38 38 39
29 29 28 28 28 28 28 28 28 28 28 28 28 28 28 28 28 28 28 29 29 29 29 30 31 31 32 32 32 33 33 33 34 34 35 36 37 37 38 39 39 40 41
30 30 30 29 29 29 29 29 29 29 29 30 30 30 30 30 30 30 31 31 31 32 32 33 33 33 34 34 34 34 35 35 36 37 37 38 39 39 40 41 41 42 42
32 32 31 31 30 31 31 31 31 31 31 31 31 31 32 32 32 32 33 33 34 34 35 35 36 36 36 36 36 37 37 38 39 39 40 40 41 41 41 42 43 43 43
32 33 33 32 32 32 33 33 33 33 33 33 33 33 34 34 34 34 35 35 36 36 37 37 37 37 37 38 38 39 39 40 40 41 41 42 42 43 43 43 44 45 45
33 33 33 33 33 34 34 34 34 34 35 35 35 35 35 35 35 35 36 36 37 38 38 39 39 39 39 39 40 40 41 41 42 42 43 43 44 44 45 46 46 47 47
34 34 35 35 35 35 35 35 35 35 36 36 36 36 36 36 36 36 37 38 38 39 40 40 40 40 40 41 41 42 43 42 42 43 44 45 45 46 47 48 48 49 49
36 36 36 36 37 36 36 36 36 37 37 37 37 37 37 37 37 38 38 39 39 40 41 41 41 41 42 43 43 44 45 45 45 45 45 46 47 48 49 49 49 49 50
38 37 37 37 38 38 38 38 38 38 38 38 38 38 38 38 39 39 40 40 41 41 42 42 42 42 43 44 45 45 46 47 48 48 47 47 47 48 49 49 50 51 51
39 39 39 38 38 39 39 39 39 39 39 39 39 39 40 40 40 40 41 41 42 43 43 44 43 44 45 46 47 47 48 48 48 49 49 48 49 49 50 51 52 53 53
Wind_Direction
231 234 238 242 245 250 254 254 255 259 261 263 264 261 265 268 271 275 278 283 287 291 297 299 304 306 304 302 302 300 299 300 304 300 298 297 297 298 295 293 291 293 292
235 238 240 243 246 249 251 253 254 257 260 263 264 262 263 267 270 274 277 279 282 285 289 292 293 296 295 294 292 290 289 288 290 290 291 291 290 290 290 289 288 289 289
237 239 241 244 247 249 250 252 253 256 259 259 260 262 264 265 268 271 276 279 281 283 286 287 286 288 289 289 288 286 285 284 284 285 287 289 287 287 286 286 285 284 285
239 240 242 244 246 247 248 250 253 256 258 258 259 260 263 265 265 271 275 278 280 282 283 283 283 286 288 287 285 283 283 283 282 282 284 285 285 285 284 282 282 282 283
240 241 243 244 245 246 246 248 251 254 256 258 259 260 263 265 268 271 275 277 278 280 280 281 281 283 285 284 283 281 282 282 282 281 282 283 284 284 284 281 280 280 281
241 242 244 244 244 245 247 248 250 252 254 257 258 260 262 265 268 269 272 275 277 278 279 279 280 280 281 281 280 280 280 281 281 281 281 282 282 283 283 282 281 281 281
242 243 244 245 246 247 248 250 251 253 254 256 258 259 262 264 267 268 270 272 274 276 278 278 278 279 280 281 281 281 281 281 281 282 282 282 282 283 283 283 282 282 282
243 244 244 246 247 248 249 251 252 253 255 256 259 260 262 263 265 267 269 271 273 275 277 278 279 280 280 281 281 281 281 281 281 281 281 281 282 282 283 283 283 283 282
243 244 245 246 248 249 250 251 253 254 256 258 259 262 263 263 264 266 268 271 273 274 276 277 279 279 280 281 281 281 282 281 281 283 283 283 282 282 282 283 283 283 283
242 244 245 246 248 249 251 252 254 256 257 259 260 262 262 263 264 266 269 271 273 274 276 277 278 279 281 281 282 282 282 282 282 283 284 284 283 283 283 282 283 283 283
242 244 246 246 248 249 251 253 255 257 259 260 261 261 262 263 264 267 269 270 272 274 276 278 279 280 281 282 282 282 282 282 283 283 283 284 284 284 284 283 283 283 283
243 245 246 247 248 250 252 253 254 257 260 260 260 262 263 264 265 266 268 270 272 275 277 278 280 280 281 282 283 282 282 283 283 284 284 284 285 285 284 284 285 285 285
243 245 247 248 250 251 253 254 255 257 258 259 261 262 263 264 265 266 268 269 272 275 278 279 280 280 281 282 283 282 283 283 285 285 285 285 285 285 285 285 286 286 285
244 244 246 248 250 251 253 255 256 258 258 259 261 263 264 264 265 267 268 270 273 275 277 278 280 280 281 281 282 283 284 284 285 285 286 286 286 286 286 286 286 286 286
244 245 246 248 249 251 253 255 257 257 257 259 261 263 264 264 265 267 269 271 273 274 276 277 279 281 281 281 282 284 284 284 285 285 286 287 286 287 287 288 288 287 286
244 245 246 248 250 251 252 254 256 256 258 259 262 263 264 265 266 267 270 272 273 274 276 277 279 281 281 281 283 284 284 285 285 285 286 286 287 287 288 288 288 288 287
245 246 247 248 249 251 253 254 255 256 257 259 261 263 265 265 266 268 270 271 273 275 277 278 280 281 281 281 282 283 283 284 285 286 286 287 287 288 288 288 288 288 288
246 247 248 248 249 251 252 253 254 256 257 259 261 263 265 266 267 269 271 272 274 276 278 280 281 282 282 282 282 283 283 284 285 287 287 287 287 288 288 287 287 287 287
246 247 249 249 250 251 252 254 255 256 258 260 262 264 265 266 268 270 271 273 275 277 278 280 281 282 282 281 281 282 282 284 285 287 287 287 288 288 288 287 287 287 287
246 248 249 250 251 251 253 254 256 257 259 261 262 264 266 267 269 270 272 273 275 276 278 280 281 281 281 281 281 282 283 284 285 286 287 287 288 288 288 288 287 287 287
246 248 250 251 252 252 254 255 257 259 261 262 263 265 267 268 269 271 272 274 275 277 278 279 280 280 281 281 281 282 283 284 285 286 286 287 287 288 288 288 288 287 287
247 249 251 252 253 254 255 257 258 260 261 262 264 265 267 268 270 271 273 274 276 277 278 280 280 280 281 282 282 283 284 285 285 286 286 287 288 288 288 288 288 288 287
248 250 252 254 255 255 256 257 258 260 261 263 265 267 268 269 270 272 274 275 276 277 278 279 280 280 281 282 283 284 285 285 285 286 287 287 288 288 288 288 288 288 288
249 250 252 254 256 256 257 258 259 260 262 264 265 267 268 269 271 273 274 276 276 277 278 279 280 280 281 282 283 284 285 286 286 286 286 287 288 288 288 289 289 289 289
249 251 253 255 256 257 258 259 259 261 263 264 265 266 268 269 271 272 274 276 277 278 279 280 280 280 281 282 283 284 285 287 288 287 287 287 288 289 289 289 289 289 289
250 252 253 255 256 256 257 258 260 261 263 264 265 266 268 270 271 273 274 275 277 278 279 280 280 281 282 282 284 285 286 287 288 288 288 287 288 289 289 289 289 289 289
Height
5874 5874 5875 5876 5877 5877 5878 5879 5879 5880 5881 5882 5882 5883 5883 5883 5883 5883 5883 5883 5883 5883 5883 5883 5882 5882 5881 5881 5880 5880 5879 5879 5878 5877 5877 5876 5875 5874 5874 5873 5872 5872 5871
5872 5873 5874 5875 5875 5876 5877 5878 5878 5879 5880 5880 5881 5882 5882 5882 5882 5882 5882 5883 5882 5882 5882 5882 5881 5881 5880 5880 5879 5879 5878 5878 5877 5876 5876 5875 5874 5873 5872 5872 5871 5870 5869
5870 5871 5872 5873 5874 5874 5875 5876 5877 5878 5878 5879 5880 5880 5881 5881 5881 5881 5881 5881 5881 5881 5881 5880 5880 5880 5879 5879 5878 5878 5877 5876 5875 5875 5874 5873 5872 5872 5871 5870 5869 5869 5868
5867 5869 5870 5871 5872 5873 5874 5875 5876 5876 5877 5878 5878 5879 5879 5880 5880 5880 5880 5880 5880 5879 5879 5879 5879 5878 5878 5877 5877 5876 5875 5874 5874 5873 5872 5871 5871 5870 5869 5868 5867 5867 5866
5865 5866 5867 5868 5869 5871 5872 5873 5874 5875 5875 5876 5876 5877 5877 5878 5878 5878 5878 5878 5878 5878 5877 5877 5877 5876 5876 5875 5875 5874 5873 5872 5872 5871 5870 5869 5868 5868 5867 5866 5865 5864 5864
5862 5863 5864 5866 5867 5868 5869 5871 5872 5872 5873 5874 5874 5875 5875 5876 5876 5876 5876 5876 5876 5875 5875 5875 5874 5874 5874 5873 5872 5872 5871 5870 5869 5869 5868 5867 5866 5865 5864 5863 5863 5862 5861
5858 5860 5861 5863 5864 5866 5867 5868 5869 5870 5871 5872 5872 5873 5873 5873 5874 5874 5874 5874 5873 5873 5873 5872 5872 5871 5871 5870 5869 5869 5868 5867 5867 5866 5865 5864 5863 5862 5861 5860 5859 5859 5858
5855 5857 5858 5860 5861 5862 5864 5865 5866 5867 5868 5869 5869 5870 5870 5871 5871 5871 5871 5871 5871 5870 5870 5869 5869 5868 5868 5867 5866 5866 5865 5864 5863 5863 5862 5861 5860 5859 5858 5857 5856 5855 5854
5851 5853 5855 5856 5858 5859 5860 5862 5863 5864 5865 5866 5866 5867 5867 5867 5868 5868 5868 5868 5867 5867 5867 5866 5866 5865 5864 5864 5863 5862 5861 5861 5860 5859 5858 5857 5856 5855 5854 5853 5852 5850 5849
5847 5849 5851 5853 5854 5856 5857 5858 5859 5860 5861 5862 5863 5863 5864 5864 5864 5864 5864 5864 5864 5864 5863 5863 5862 5861 5861 5860 5859 5858 5857 5856 5856 5855 5854 5853 5852 5850 5849 5848 5847 5846 5845
5843 5845 5847 5848 5850 5852 5853 5854 5855 5856 5857 5858 5859 5859 5860 5860 5860 5860 5860 5860 5860 5860 5859 5859 5858 5857 5857 5856 5855 5854 5853 5852 5851 5850 5849 5848 5847 5846 5845 5843 5842 5841 5839
5839 5841 5842 5844 5846 5847 5848 5850 5851 5852 5853 5854 5854 5855 5855 5856 5856 5856 5856 5856 5856 5856 5855 5854 5854 5853 5852 5851 5850 5849 5848 5847 5846 5845 5844 5843 5842 5841 5839 5838 5837 5835 5834
5834 5836 5838 5839 5841 5842 5844 5845 5846 5847 5848 5849 5850 5850 5851 5851 5852 5852 5852 5852 5851 5851 5851 5850 5849 5848 5847 5846 5845 5844 5843 5842 5841 5840 5839 5838 5836 5835 5833 5832 5831 5829 5828
5829 5831 5832 5834 5836 5837 5839 5840 5842 5843 5844 5844 5845 5846 5846 5846 5847 5847 5847 5847 5846 5846 5846 5845 5844 5843 5843 5842 5841 5839 5838 5837 5835 5834 5833 5831 5830 5828 5827 5826 5824 5822 5821
5823 5825 5827 5829 5831 5832 5834 5835 5837 5838 5838 5839 5840 5841 5841 5841 5842 5842 5842 5842 5841 5841 5840 5840 5839 5838 5837 5836 5835 5834 5832 5831 5830 5828 5827 5825 5823 5822 5820 5819 5817 5815 5813
5818 5820 5822 5823 5825 5827 5828 5830 5831 5832 5833 5834 5834 5835 5836 5836 5836 5837 5836 5836 5836 5835 5835 5834 5833 5833 5832 5830 5829 5828 5827 5825 5823 5822 5820 5818 5817 5815 5813 5811 5809 5807 5805
5812 5814 5816 5817 5819 5821 5823 5824 5825 5826 5827 5828 5829 5829 5830 5830 5831 5831 5831 5830 5830 5829 5829 5828 5827 5826 5825 5824 5823 5821 5820 5818 5817 5815 5813 5811 5809 5807 5805 5803 5801 5799 5797
5805 5807 5809 5811 5813 5815 5816 5818 5819 5820 5821 5822 5823 5823 5824 5824 5825 5825 5825 5824 5824 5823 5823 5822 5821 5820 5818 5817 5816 5814 5813 5811 5810 5808 5806 5804 5802 5800 5797 5795 5793 5790 5788
5798 5800 5802 5805 5807 5808 5810 5811 5813 5814 5815 5816 5816 5817 5817 5818 5818 5818 5818 5818 5817 5817 5816 5815 5814 5813 5811 5810 5808 5807 5805 5804 5802 5800 5798 5795 5793 5791 5788 5786 5784 5781 5779
5791 5793 5796 5798 5800 5801 5803 5804 5806 5807 5808 5809 5810 5810 5811 5811 5811 5811 5811 5810 5810 5809 5808 5807 5806 5805 5803 5802 5800 5799 5797 5795 5793 5791 5789 5787 5784 5782 5779 5776 5774 5771 5768
5784 5787 5789 5791 5792 5794 5796 5797 5798 5799 5801 5801 5802 5803 5803 5803 5803 5803 5803 5803 5802 5801 5800 5799 5798 5796 5795 5793 5792 5790 5789 5786 5784 5782 5779 5777 5774 5772 5769 5766 5763 5760 5757
5777 5779 5781 5783 5785 5786 5788 5790 5791 5792 5793 5793 5794 5794 5795 5795 5795 5795 5795 5794 5793 5793 5791 5790 5789 5787 5786 5784 5783 5781 5779 5778 5775 5772 5769 5767 5764 5761 5758 5755 5752 5749 5746
5769 5771 5773 5775 5776 5778 5780 5781 5782 5783 5784 5785 5786 5786 5786 5786 5786 5786 5786 5785 5784 5783 5782 5781 5779 5778 5776 5774 5772 5771 5769 5767 5765 5763 5760 5756 5753 5750 5747 5744 5741 5737 5734
5761 5763 5765 5766 5768 5770 5771 5772 5774 5775 5776 5777 5777 5777 5777 5777 5777 5777 5777 5776 5775 5774 5773 5771 5769 5768 5766 5764 5762 5760 5758 5755 5753 5752 5750 5746 5742 5738 5735 5732 5728 5725 5721
5752 5754 5756 5757 5759 5761 5762 5763 5765 5766 5767 5767 5768 5768 5768 5768 5768 5767 5767 5766 5765 5764 5762 5761 5759 5757 5755 5753 5751 5749 5746 5744 5741 5738 5737 5735 5731 5727 5723 5720 5716 5712 5708
5742 5745 5747 5749 5750 5751 5752 5754 5755 5756 5757 5758 5758 5758 5758 5758 5758 5757 5757 5756 5754 5753 5752 5750 5748 5746 5744 5742 5740 5737 5735 5732 5729 5726 5724 5722 5719 5716 5712 5708 5704 5700 5696